Anaktuvuk Pass, AK

4:07 AM AKST on February 27, 2017 (GMT -0900)
Anaktuvuk Pass

Weather History for PAKP - September, 2013

Change the Weather History Date:

Sunday, September 22, 2013

  Actual Average Record
Temperature  
Mean Temperature 21 °F -  
Max Temperature 23 °F 31 °F 46 °F (2006)
Min Temperature 19 °F 20 °F 3 °F (2003)
Degree Days  
Heating Degree Days 44    
Moisture  
Dew Point 14 °F    
Average Humidity 73    
Maximum Humidity 80    
Minimum Humidity 68    
Precipitation  
Precipitation 0.00 in - - ()
Sea Level Pressure  
Sea Level Pressure 29.30 in    
Wind  
Wind Speed 8 mph (NE)    
Max Wind Speed 15 mph    
Max Gust Speed 18 mph    
Visibility 7 miles    
Events      
Averages and records for this station are not official NWS values.
T = Trace of Precipitation, MM = Missing Value Source: NWS Daily Summary

Daily Weather History Graph

Daily Weather History Graph

Search for Another Location

Airport or City:

Trip Planner

Search our weather history database for the weather conditions in past years. The results will help you decide how hot, cold, wet, or windy it might be!

Date:

Astronomy

Sep. 22, 2013 Rise Set
Actual Time 7:49 AM AKDT 8:07 PM AKDT
Civil Twilight 6:53 AM AKDT 9:03 PM AKDT
Nautical Twilight 5:42 AM AKDT 10:13 PM AKDT
Astronomical Twilight 4:12 AM AKDT 11:40 PM AKDT
Moon 7:53 PM AKDT (9/22) 1:25 PM AKDT (9/22)
Length of Visible Light 14h 09m
Length of Day
12h 17m
Waning Gibbous, 87% of the Moon is Illuminated
Sep 22
Waning Gibbous
Sep 26
Last Quarter
Oct 4
New
Oct 11
First Quarter
Oct 18
Full

Hourly Weather History & Observations

Time (AKDT) Temp. Windchill Dew Point Humidity Pressure Visibility Wind Dir Wind Speed Gust Speed Precip Events Conditions
12:16 AM 19.4 °F 10.4 °F 10.4 °F 68% 29.21 in 10.0 mi NE 6.9 mph - N/A   Overcast
12:36 AM 19.4 °F 11.5 °F 10.4 °F 68% 29.21 in 10.0 mi NE 5.8 mph - N/A   Overcast
12:56 AM 19.4 °F 10.4 °F 10.4 °F 68% 29.22 in 10.0 mi NE 6.9 mph - N/A   Overcast
1:16 AM 19.4 °F 14.3 °F 10.4 °F 68% 29.22 in 10.0 mi North 3.5 mph - N/A   Overcast
1:36 AM 19.4 °F 11.5 °F 10.4 °F 68% 29.23 in 10.0 mi NE 5.8 mph - N/A   Overcast
1:56 AM 19.4 °F 12.8 °F 10.4 °F 68% 29.23 in 10.0 mi NNW 4.6 mph - N/A   Overcast
2:16 AM 19.4 °F 12.8 °F 10.4 °F 68% 29.23 in 10.0 mi NNW 4.6 mph - N/A   Overcast
2:36 AM 19.4 °F 12.8 °F 10.4 °F 68% 29.23 in 10.0 mi North 4.6 mph - N/A   Overcast
2:56 AM 19.4 °F 11.5 °F 10.4 °F 68% 29.24 in 10.0 mi North 5.8 mph - N/A   Overcast
3:16 AM 19.4 °F 11.5 °F 12.2 °F 74% 29.24 in 10.0 mi North 5.8 mph - N/A   Overcast
3:36 AM 19.4 °F 11.5 °F 12.2 °F 74% 29.24 in 10.0 mi NNE 5.8 mph - N/A   Overcast
3:56 AM 19.4 °F 12.8 °F 12.2 °F 74% 29.25 in 10.0 mi North 4.6 mph - N/A   Overcast
4:16 AM 19.4 °F 11.5 °F 12.2 °F 74% 29.25 in 5.0 mi North 5.8 mph - N/A   Overcast
4:36 AM 21.2 °F 13.6 °F 12.2 °F 68% 29.25 in 3.0 mi NE 5.8 mph - N/A   Mostly Cloudy
4:56 AM 21.2 °F 13.6 °F 12.2 °F 68% 29.25 in 4.0 mi NNE 5.8 mph - N/A   Overcast
5:16 AM 19.4 °F 12.8 °F 12.2 °F 74% 29.26 in 5.0 mi North 4.6 mph - N/A   Overcast
5:36 AM 21.2 °F 14.9 °F 12.2 °F 68% 29.26 in 2.5 mi North 4.6 mph - N/A   Overcast
5:56 AM 21.2 °F 13.6 °F 14.0 °F 74% 29.26 in 2.0 mi NNE 5.8 mph - N/A   Overcast
6:16 AM 21.2 °F 11.7 °F 14.0 °F 74% 29.26 in 2.5 mi NE 8.1 mph - N/A   Overcast
6:36 AM 21.2 °F 13.6 °F 14.0 °F 74% 29.26 in 8.0 mi NNE 5.8 mph - N/A   Overcast
6:56 AM 19.4 °F 11.5 °F 12.2 °F 74% 29.26 in 5.0 mi North 5.8 mph - N/A   Overcast
7:16 AM 21.2 °F 12.6 °F 14.0 °F 74% 29.27 in 7.0 mi NE 6.9 mph - N/A   Overcast
7:36 AM 21.2 °F 11.7 °F 14.0 °F 74% 29.27 in 5.0 mi NE 8.1 mph - N/A   Overcast
7:56 AM 21.2 °F 10.9 °F 14.0 °F 74% 29.27 in 9.0 mi NE 9.2 mph - N/A   Overcast
8:16 AM 21.2 °F 10.9 °F 14.0 °F 74% 29.27 in 6.0 mi NE 9.2 mph - N/A   Overcast
8:36 AM 21.2 °F 9.5 °F 14.0 °F 74% 29.28 in 9.0 mi NE 11.5 mph - N/A   Overcast
8:56 AM 21.2 °F 9.5 °F 14.0 °F 74% 29.28 in 9.0 mi NE 11.5 mph - N/A   Overcast
9:16 AM 21.2 °F 8.3 °F 15.8 °F 80% 29.29 in 7.0 mi NE 13.8 mph - N/A   Overcast
9:36 AM 21.2 °F 9.5 °F 15.8 °F 80% 29.29 in 3.0 mi NE 11.5 mph - N/A   Overcast
9:56 AM 21.2 °F 8.9 °F 15.8 °F 80% 29.29 in 8.0 mi ENE 12.7 mph 17.3 mph N/A   Overcast
10:16 AM 21.2 °F 8.9 °F 15.8 °F 80% 29.29 in 10.0 mi NE 12.7 mph - N/A   Overcast
10:36 AM 21.2 °F 7.8 °F 15.8 °F 80% 29.29 in 8.0 mi ENE 15.0 mph - N/A   Overcast
10:56 AM 21.2 °F 7.8 °F 15.8 °F 80% 29.29 in 10.0 mi NE 15.0 mph - N/A   Overcast
11:16 AM 21.2 °F 8.3 °F 15.8 °F 80% 29.30 in 10.0 mi NE 13.8 mph - N/A   Overcast
11:36 AM 23.0 °F 11.1 °F 15.8 °F 74% 29.30 in 10.0 mi NE 12.7 mph - N/A   Overcast
11:56 AM 23.0 °F 11.1 °F 15.8 °F 74% 29.30 in 10.0 mi ENE 12.7 mph - N/A   Overcast
12:16 PM 23.0 °F 11.7 °F 14.0 °F 68% 29.30 in 9.0 mi NE 11.5 mph - N/A   Overcast
12:36 PM 23.0 °F 10.6 °F 15.8 °F 74% 29.31 in 10.0 mi NE 13.8 mph - N/A   Overcast
12:56 PM 23.0 °F 11.1 °F 15.8 °F 74% 29.31 in 7.0 mi NE 12.7 mph - N/A   Overcast
1:16 PM 23.0 °F 11.7 °F 14.0 °F 68% 29.31 in 10.0 mi NE 11.5 mph 18.4 mph N/A   Mostly Cloudy
1:36 PM 23.0 °F 11.1 °F 14.0 °F 68% 29.31 in 10.0 mi NE 12.7 mph - N/A   Overcast
1:56 PM 23.0 °F 11.1 °F 15.8 °F 74% 29.31 in 10.0 mi NE 12.7 mph - N/A   Overcast
2:16 PM 23.0 °F 11.7 °F 15.8 °F 74% 29.32 in 10.0 mi NE 11.5 mph - N/A   Overcast
2:36 PM 23.0 °F 12.4 °F 14.0 °F 68% 29.32 in 10.0 mi NE 10.4 mph - N/A   Overcast
2:56 PM 23.0 °F 11.7 °F 15.8 °F 74% 29.32 in 10.0 mi ENE 11.5 mph 17.3 mph N/A   Overcast
3:16 PM 23.0 °F 11.1 °F 15.8 °F 74% 29.32 in 10.0 mi NE 12.7 mph - N/A   Overcast
3:36 PM 23.0 °F 12.4 °F 14.0 °F 68% 29.33 in 10.0 mi NE 10.4 mph - N/A   Overcast
3:56 PM 23.0 °F 11.7 °F 14.0 °F 68% 29.33 in 10.0 mi ENE 11.5 mph - N/A   Overcast
4:16 PM 23.0 °F 12.4 °F 14.0 °F 68% 29.34 in 10.0 mi ENE 10.4 mph - N/A   Overcast
4:36 PM 23.0 °F 11.7 °F 15.8 °F 74% 29.34 in 10.0 mi NE 11.5 mph - N/A   Overcast
4:56 PM 23.0 °F 11.7 °F 15.8 °F 74% 29.34 in 10.0 mi ENE 11.5 mph - N/A   Overcast
5:16 PM 23.0 °F 12.4 °F 15.8 °F 74% 29.34 in 10.0 mi ENE 10.4 mph - N/A   Overcast
5:36 PM 23.0 °F 11.7 °F 15.8 °F 74% 29.35 in 10.0 mi NE 11.5 mph - N/A   Overcast
5:56 PM 21.2 °F 10.1 °F 14.0 °F 74% 29.35 in 10.0 mi NE 10.4 mph - N/A   Overcast
6:16 PM 21.2 °F 10.9 °F 14.0 °F 74% 29.35 in 8.0 mi NE 9.2 mph - N/A   Overcast
6:36 PM 21.2 °F 10.1 °F 15.8 °F 80% 29.35 in 2.0 mi NE 10.4 mph - N/A   Overcast
6:56 PM 21.2 °F 10.9 °F 14.0 °F 74% 29.36 in 1.8 mi NE 9.2 mph - N/A   Overcast
7:16 PM 21.2 °F 10.1 °F 14.0 °F 74% 29.36 in 2.5 mi NE 10.4 mph - N/A   Overcast
7:36 PM 21.2 °F 11.7 °F 14.0 °F 74% 29.36 in 1.8 mi NE 8.1 mph - N/A   Overcast
7:56 PM 21.2 °F 12.6 °F 14.0 °F 74% 29.36 in 1.8 mi NE 6.9 mph - N/A   Overcast
8:16 PM 21.2 °F 12.6 °F 14.0 °F 74% 29.36 in 2.0 mi NE 6.9 mph - N/A   Overcast
8:36 PM 21.2 °F 12.6 °F 14.0 °F 74% 29.36 in 4.0 mi NE 6.9 mph - N/A   Mostly Cloudy
8:56 PM 21.2 °F 13.6 °F 14.0 °F 74% 29.36 in 3.0 mi NE 5.8 mph - N/A   Overcast
9:16 PM 21.2 °F 13.6 °F 14.0 °F 74% 29.37 in 2.5 mi ENE 5.8 mph - N/A   Overcast
9:36 PM 21.2 °F 13.6 °F 14.0 °F 74% 29.37 in 9.0 mi NE 5.8 mph - N/A   Overcast
9:56 PM 21.2 °F 16.4 °F 14.0 °F 74% 29.38 in 5.0 mi NE 3.5 mph - N/A   Overcast
10:16 PM 21.2 °F 14.9 °F 14.0 °F 74% 29.38 in 7.0 mi NE 4.6 mph - N/A   Overcast
10:36 PM 21.2 °F - 14.0 °F 74% 29.38 in 4.0 mi Calm Calm - N/A   Overcast
10:56 PM 21.2 °F - 14.0 °F 74% 29.38 in 3.0 mi Calm Calm - N/A   Overcast
11:16 PM 19.4 °F - 14.0 °F 80% 29.39 in 3.0 mi Calm Calm - N/A   Overcast
11:36 PM 19.4 °F - 14.0 °F 80% 29.39 in 5.0 mi Calm Calm - N/A   Overcast
11:56 PM 21.2 °F - 14.0 °F 74% 29.39 in 4.0 mi Calm Calm - N/A   Overcast